This demonstration page uses our WeatherBlox Daily Observations layout. Learn more.

Left ArrowRight Arrow

38.83388, -104.82136

Hourly Observations for May 12, 2022

Temp ( °F °C ) Dew Point ( °F °C ) Humidity (%) Winds ( mph kmh ) Pressure ( in mb ) Visibility ( mi km ) Precip ( " mm )
12:58 am 00:58 Clear 70 20.9 17 -8.6 13 13 SSE 10 17 29.48 998 10 16 0.00 0.00
1:53 am 01:53 Clear 68 20 10 -12 10 10 S 13 20 29.47 998 10 16 0.00 0.00
1:58 am 01:58 Clear 68 20.1 10 -12.5 10 10 SSW 16 26 29.47 998 10 16 0.00 0.00
2:58 am 02:58 Clear 66 18.9 10 -12.2 11 11 SSE 21 33 29.43 997 10 16 0.00 0.00
3:58 am 03:58 Clear 64 17.8 10 -12 12 12 SSE 29 46 29.41 996 10 16 0.00 0.00
4:58 am 04:58 Clear 63 17.1 9 -12.6 12 12 SSE 18 30 29.32 993 10 16 0.00 0.00
5:31 am 05:31 Partly Cloudy 63 17 7 -14 11 11 S 26 43 29.33 993 10 16 0.00 0.00
5:36 am 05:36 Mostly Cloudy 63 17 7 -14 11 11 ESE 21 33 29.33 993 10 16 0.00 0.00
5:55 am 05:55 Cloudy 63 17 9 -13 12 12 S 31 50 29.35 994 10 16 0.00 0.00
5:58 am 05:58 Cloudy 62 16.5 9 -13 12 12 SSE 23 37 29.34 994 10 16 0.00 0.00
6:58 am 06:58 Partly Cloudy 62 16.6 2 -16.5 9 9 SSE 29 46 29.39 995 10 16 0.00 0.00
7:58 am 07:58 Partly Cloudy 62 16.6 -6 -21.2 6 6 SSE 28 44 29.37 995 10 16 0.00 0.00
8:58 am 08:58 Mostly Sunny 60 15.6 -7 -21.9 6 6 SSE 29 46 29.36 994 10 16 0.00 0.00
9:56 am 09:56 Sunny 65 18.1 -1 -18.3 7 7 SSE 24 39 29.42 996 10 16 0.00 0.00
10:49 am 10:49 Sunny 66 19 -4 -20 6 6 SSE 16 26 29.44 997 10 16 0.00 0.00
10:56 am 10:56 Sunny 65 18.5 -4 -19.8 6 6 SE 24 39 29.42 996 10 16 0.00 0.00
11:35 am 11:35 Sunny 64 18 -13 -25 4 4 S 28 44 29.41 996 10 16 0.00 0.00
11:42 am 11:42 Sunny 64 18 -13 -25 4 4 ESE 24 39 29.44 997 10 16 0.00 0.00
11:52 am 11:52 Sunny 64 18 -13 -25 4 4 E 14 22 29.44 997 10 16 0.00 0.00
11:54 am 11:54 Sunny 64 18 -18 -28 3 3 E 18 30 29.43 997 10 16 0.00 0.00
11:56 am 11:56 Sunny 64 17.5 -19 -28.3 3 3 SE 23 37 29.43 997 10 16 0.00 0.00
12:00 pm 12:00 Sunny 64 18 -18 -28 3 3 SSE 25 41 29.43 997 10 16 0.00 0.00
12:02 pm 12:02 Sunny 64 18 -18 -28 3 3 ESE 22 35 29.43 997 10 16 0.00 0.00
12:05 pm 12:05 Sunny 64 18 -13 -25 4 4 SE 13 20 29.45 997 10 16 0.00 0.00
12:35 pm 12:35 Sunny 64 18 -13 -25 4 4 ESE 15 24 29.49 999 10 16 0.00 0.00
12:43 pm 12:43 Sunny 64 18 -13 -25 4 4 SSE 17 28 29.49 999 10 16 0.00 0.00
12:45 pm 12:45 Sunny 64 18 -13 -25 4 4 ESE 14 22 29.49 999 10 16 0.00 0.00
12:56 pm 12:56 Sunny 65 18.5 -12 -24.4 4 4 SSE 18 30 29.49 999 10 16 0.00 0.00
12:58 pm 12:58 Sunny 66 19 -11 -24 4 4 SSE 23 37 29.49 999 10 16 0.00 0.00
1:11 pm 13:11 Sunny 66 19 -11 -24 4 4 ESE 14 22 29.51 999 10 16 0.00 0.00
1:32 pm 13:32 Sunny 66 19 -11 -24 4 4 S 17 28 29.52 1000 10 16 0.00 0.00
1:36 pm 13:36 Sunny 66 19 -11 -24 4 4 SE 18 30 29.49 999 10 16 0.00 0.00
1:41 pm 13:41 Sunny 66 19 -8 -22 5 5 S 22 35 29.51 999 10 16 0.00 0.00
2:11 pm 14:11 Sunny 66 19 -6 -21 5 5 SE 15 24 29.54 1000 10 16 0.00 0.00
2:21 pm 14:21 Sunny 66 19 -6 -21 5 5 S 14 22 29.55 1001 10 16 0.00 0.00
2:23 pm 14:23 Sunny 66 19 -6 -21 5 5 SSE 14 22 29.55 1001 10 16 0.00 0.00
2:26 pm 14:26 Sunny 68 20 -6 -21 5 5 ESE 15 24 29.54 1000 10 16 0.00 0.00
2:32 pm 14:32 Sunny 68 20 -6 -21 5 5 SSE 20 31 29.54 1000 10 16 0.00 0.00
2:45 pm 14:45 Sunny 68 20 -6 -21 5 5 ESE 18 30 29.56 1001 10 16 0.00 0.00
2:56 pm 14:56 Sunny 69 20.5 -5 -20.5 5 5 SSE 20 31 29.55 1001 10 16 0.00 0.00
3:25 pm 15:25 Sunny 68 20 -17 -27 3 3 ESE 16 26 29.56 1001 10 16 0.00 0.00
3:26 pm 15:26 Sunny 68 20 -17 -27 3 3 N 12 19 29.56 1001 10 16 0.00 0.00
3:30 pm 15:30 Sunny 68 20 -17 -27 3 3 SSE 14 22 29.56 1001 10 16 0.00 0.00
3:35 pm 15:35 Sunny 68 20 -9 -23 4 4 SE 23 37 29.54 1000 10 16 0.00 0.00
3:50 pm 15:50 Sunny 68 20 -9 -23 4 4 ESE 16 26 29.55 1001 10 16 0.00 0.00
3:56 pm 15:56 Sunny 68 19.8 -10 -23.5 4 4 SSE 18 30 29.54 1000 10 16 0.00 0.00
3:57 pm 15:57 Sunny 68 20 -9 -23 4 4 SSE 21 33 29.54 1000 10 16 0.00 0.00
4:00 pm 16:00 Sunny 68 20 -9 -23 4 4 S 12 19 29.54 1000 10 16 0.00 0.00
4:02 pm 16:02 Sunny 68 20 -9 -23 4 4 SE 15 24 29.55 1001 10 16 0.00 0.00
4:19 pm 16:19 Sunny 68 20 -6 -21 5 5 ESE 14 22 29.56 1001 10 16 0.00 0.00
4:21 pm 16:21 Sunny 68 20 -9 -23 4 4 SSE 17 28 29.55 1001 10 16 0.00 0.00
4:30 pm 16:30 Sunny 68 20 -6 -21 5 5 ESE 18 30 29.55 1001 10 16 0.00 0.00
4:56 pm 16:56 Sunny 67 19.4 -6 -21.3 5 5 SE 10 17 29.57 1001 10 16 0.00 0.00
5:58 pm 17:58 Sunny 64 18 -4 -20.2 6 6 SE 8 13 29.56 1001 10 16 0.00 0.00
6:58 pm 18:58 Sunny 63 17.3 -2 -18.9 7 7 SE 10 17 29.53 1000 10 16 0.00 0.00
7:55 pm 19:55 undefined 63 17 -2 -19 7 7 S 22 35 29.53 1000 10 16 0.00 0.00
7:58 pm 19:58 Sunny 62 16.5 -3 -19.5 7 7 S 15 24 29.54 1000 10 16 0.00 0.00
8:01 pm 20:01 Sunny 61 16 -4 -20 7 7 ESE 13 20 29.57 1001 10 16 0.00 0.00
8:25 pm 20:25 Clear 61 16 -4 -20 7 7 NNW 13 20 29.57 1001 10 16 0.00 0.00
8:46 pm 20:46 undefined N/A N/A N/A SSE 12 19 N/A N/A 0.00 0.00
8:58 pm 20:58 undefined 61 16 -7 -21.7 6 6 ENE 9 15 29.54 1000 10 16 0.00 0.00
9:21 pm 21:21 undefined 63 17 -6 -21 6 6 NNW 14 22 29.54 1000 N/A 0.00 0.00
9:58 pm 21:58 Clear 60 15.6 -4 -20.2 7 7 W 10 17 29.72 1006 10 16 0.00 0.00
10:01 pm 22:01 Clear 59 15 -4 -20 7 7 NNW 12 19 29.74 1007 10 16 0.00 0.00
10:58 pm 22:58 undefined N/A N/A N/A undefined N/A N/A N/A 0.00 0.00

Powered by AerisWeather